VOLGA DEB, 44621

Orbit data source: Space-Track

VOLGA DEB, 44621 is space debris in SSO originally from a launch on Wed, 10 Jul 2019 UTC launched from the Plesetsk Missile And Space Complex (PKMTR). Debris objects in space refer to the collection of defunct objects orbiting the Earth. Examples of debris include non-operational satellites, rocket bodies, and fragments generated from explosions, collisions, or faulty payload assembly.

Loading next visibility...
Identifier
44621, 2019-039F
Orbit
SSO
Country
Flag of CISCIS
Related business
Manufacturer
TSKHM?
Mission
Spacecraft
Bus & Motor
NAPRAZHENIYE?, Unknown motor
Mass
~47 kg wet, ~47 kg dry
Launch date (UTC)
2019-07-10 (7 years ago)
Launch vehicle
Unknown
Launch site
Plesetsk Missile And Space Complex (PKMTR)
Object type
Payload
Rocket body
Debris
Shape & HBR
Unknown shape, 0.1 m
Radar Cross Section
Small (<0.1 m²)

Expand to show TLE details & history
Last TLE update: 3 days ago

TLE from 3 days ago
0 VOLGA DEB
1 44621U 19039F   26161.82261040  .00002956  00000-0  26392-3 0  9995
2 44621  97.5772 188.1022 0006251 253.1715 106.8822 14.96672710375494
Epoch: 2026-06-10T19:44Z
TLE epoch observation values (Epoch: 2026-06-10T19:44:33.538Z)
Latitude
0.00002°
Longitude
-7.21279°
Altitude
581.505 km
Speed
7.569 km/s
True Right ascension
12h 32m 24s
True Declination
0° 00' 00"
Sunlit
Object was in daylight at epoch
Visualization orbit readout
Latitude
Unknown
Longitude
Unknown
Altitude
Unknown
Speed
Unknown
Apparent Right ascension
Unknown
Apparent Declination
Unknown
Sunlit
N/A
Visualization observer readout
Local Sidereal Time
12:12:34
Azimuth
Unknown
Elevation
Unknown
Doppler factor
Unknown
Orbital elements
Apogee altitude
578.536 km
Perigee altitude
569.844 km
Semi-major axis
6,952.327 km
Eccentricity
0.00063
Inclination
97.5772°
RAAN
188.1022°
Arg. of periapsis
253.1715°
True anomaly
106.95073°
Mean anomaly
106.8822°
Eccentric anomaly
106.91647°
Mean motion
3.7441 °/min
Orbital period
96.15 mins
BSTAR
0.00026392

Documentation

Showing up to 5 results
|